Tracking 19709 objects as of 17-Jun-2019
HD Live streaming from Space Station
objects crossing your sky now

FLOCK 4A 5

Track FLOCK 4A 5 now!
10-day predictions
FLOCK 4A 5 is classified as:


NORAD ID: 44095
Int'l Code: 2019-018T
Perigee: 498.3 km
Apogee: 514.9 km
Inclination: 97.5 °
Period: 94.6 minutes
Semi major axis: 6877 km
RCS: Unknown
Launch date: April 1, 2019
Source: United States (US)
Launch site: SRIHARIKOTA (SRI)
aabbcc
Your satellite tracking list
Your tracking list is empty




NASA's NSSDC Master Catalog

Two Line Element Set (TLE):
1 44095U 19018T   19168.12867798  .00000516  00000-0  25581-4 0  9991
2 44095  97.4572 228.0703 0012104  31.0901 329.1049 15.22119227 11677
Source of the keplerian elements: AFSPC